This demonstration page uses our WeatherBlox Daily Observations layout. Learn more.

Left ArrowRight Arrow

39.92423, -83.80882

Hourly Observations for September 3, 2020

Temp ( °F °C ) Dew Point ( °F °C ) Humidity (%) Winds ( mph kmh ) Pressure ( in mb ) Visibility ( mi km ) Precip ( " mm )
12:56 am 00:56 Clear with Mist and Fog 65 18.3 65 18.3 100 100 E 3 6 29.90 1013 6 10 N/A
1:56 am 01:56 Clear 65 18.3 65 18.3 100 100 N N/A 29.89 1012 7 11 N/A
2:56 am 02:56 Mostly Cloudy with Mist and Fog 66 18.9 66 18.9 100 100 N N/A 29.89 1012 5 8 N/A
3:56 am 03:56 Clear 65 18.3 65 18.3 100 100 N N/A 29.87 1012 7 11 N/A
4:56 am 04:56 Clear with Mist and Fog 65 18.3 65 18.3 100 100 N N/A 29.87 1012 6 10 N/A
5:56 am 05:56 Mostly Cloudy with Light Rain 66 18.9 66 18.9 100 100 ENE 3 6 29.85 1011 4 6 0.00 0.00
6:56 am 06:56 Cloudy with Light Rain 66 18.9 66 18.9 100 100 ESE 3 6 29.85 1011 3 5 0.02 0.51
7:16 am 07:16 Mostly Cloudy with Light Rain 66 19 66 19 100 100 ESE 6 9 29.84 1010 3 4 0.02 0.51
7:54 am 07:54 Partly Cloudy with Light Rain 66 19 66 19 100 100 ESE 6 9 29.85 1011 3 5 0.03 0.76
7:56 am 07:56 Partly Cloudy with Light Rain 67 19.4 67 19.4 100 100 ESE 5 7 29.85 1011 3 5 0.03 0.76
8:44 am 08:44 Mostly Cloudy with Mist and Fog 68 20 68 20 100 100 ESE 3 6 29.83 1010 3 4 0.00 0.00
8:56 am 08:56 Mostly Cloudy with Light Rain 69 20.6 69 20.6 100 100 SE 3 6 29.84 1011 3 4 0.00 0.00
9:09 am 09:09 Cloudy with Light Rain 70 21 70 21 100 100 SE 5 7 29.82 1010 3 4 0.00 0.00
9:17 am 09:17 Cloudy with Light Rain 70 21 70 21 100 100 VRB 3 6 29.83 1010 3 5 0.00 0.00
9:51 am 09:51 Cloudy with Mist and Fog 70 21 70 21 100 100 SE 6 9 29.82 1010 4 6 0.00 0.00
9:56 am 09:56 Cloudy with Mist and Fog 70 21.1 70 21.1 100 100 SSE 7 11 29.83 1010 4 6 0.00 0.00
10:10 am 10:10 Cloudy 70 21 70 21 100 100 SE 8 13 29.82 1010 8 13 N/A
10:43 am 10:43 Cloudy 72 22 72 22 100 100 SE 7 11 29.81 1010 10 16 N/A
10:56 am 10:56 Cloudy 72 22.2 71 21.7 97 97 SE 8 13 29.83 1010 10 16 N/A
11:12 am 11:12 Cloudy 73 23 72 22 94 94 SSE 7 11 29.81 1010 10 16 N/A
11:56 am 11:56 Mostly Cloudy 74 23.3 71 21.7 91 91 SSE 5 7 29.83 1010 10 16 N/A
12:05 pm 12:05 Cloudy 73 23 72 22 94 94 SSE 7 11 29.81 1010 10 16 N/A
12:56 pm 12:56 Cloudy 75 23.9 72 22.2 90 90 SW 6 9 29.83 1010 10 16 N/A
1:56 pm 13:56 Cloudy 79 26.1 73 22.8 82 82 VRB 7 11 29.82 1010 10 16 N/A
2:06 pm 14:06 Cloudy 79 26 72 22 79 79 W 10 17 29.79 1009 10 16 N/A
2:13 pm 14:13 Cloudy 79 26 73 23 84 84 W 9 15 29.79 1009 10 16 N/A
2:56 pm 14:56 Cloudy 81 27.2 73 22.8 77 77 WSW 14 22 29.80 1009 10 16 N/A
3:21 pm 15:21 Mostly Cloudy 82 28 73 23 74 74 WSW 15 24 29.75 1008 10 16 N/A
3:56 pm 15:56 Cloudy 81 27.2 71 21.7 72 72 W 10 17 29.79 1009 10 16 N/A
4:56 pm 16:56 Partly Cloudy 83 28.3 70 21.1 65 65 W 15 24 29.78 1009 10 16 N/A
5:56 pm 17:56 Mostly Sunny 82 27.8 69 20.6 65 65 WSW 15 24 29.79 1009 10 16 N/A
6:56 pm 18:56 Sunny 79 26.1 68 20 69 69 WSW 9 15 29.80 1009 10 16 N/A
7:56 pm 19:56 Sunny 76 24.4 67 19.4 74 74 WSW 8 13 29.81 1009 10 16 N/A
8:56 pm 20:56 Mostly Clear 74 23.3 68 20 82 82 WSW 8 13 29.84 1010 10 16 N/A
9:56 pm 21:56 Clear 73 22.8 69 20.6 87 87 SW 7 11 29.86 1011 10 16 N/A
10:56 pm 22:56 Cloudy 75 23.9 68 20 79 79 WSW 9 15 29.88 1012 10 16 N/A
11:56 pm 23:56 Cloudy 75 23.9 67 19.4 76 76 WSW 12 19 29.88 1012 10 16 N/A

Powered by AerisWeather